When you browse on this site, cookies collect data to enhance your experience and personalize the content and advertising you see.
Visit our Privacy Policy to learn more. By continuing to use the site, you agree to this use of cookies and data.
  • en Suisse
  • Liste des pays
  • À 7 jours
  • Température de l'eau
  • Carte satellitaire
  • Carte météo
  • Widgets météo
  • user-avatar
    Se connecter

    Météo par heure à Nairobi

    Ce jour, 21 Mars, Jeudi

    Heure Température Précipitation Vent Pression Humidité
    00:00 +19°C° 0 mm 4 m/s 622 mmHg 71%
    01:00 +19°C° 0 mm 4 m/s 622 mmHg 73%
    02:00 +18°C° 0 mm 4 m/s 622 mmHg 72%
    03:00 +18°C° 0 mm 3 m/s 622 mmHg 75%
    04:00 +17°C° 0 mm 3 m/s 622 mmHg 77%
    05:00 +17°C° 0 mm 2 m/s 622 mmHg 79%
    06:00 +19°C° 0 mm 3 m/s 623 mmHg 68%
    07:00 +21°C° 0 mm 3 m/s 624 mmHg 57%
    08:00 +25°C° 0 mm 3 m/s 625 mmHg 45%
    09:00 +27°C° 0 mm 4 m/s 625 mmHg 39%
    10:00 +28°C° 0 mm 4 m/s 626 mmHg 33%
    11:00 +30°C° 0 mm 4 m/s 626 mmHg 28%
    12:00 +32°C° 0 mm 5 m/s 625 mmHg 26%
    13:00 +32°C° 0 mm 5 m/s 625 mmHg 24%
    14:00 +33°C° 0 mm 6 m/s 624 mmHg 23%
    15:00 +32°C° 0 mm 6 m/s 624 mmHg 28%
    16:00 +29°C° 0 mm 6 m/s 623 mmHg 32%
    17:00 +28°C° 0 mm 6 m/s 623 mmHg 37%
    18:00 +26°C° 0 mm 6 m/s 623 mmHg 46%
    19:00 +24°C° 0 mm 6 m/s 623 mmHg 55%
    20:00 +22°C° 0 mm 6 m/s 623 mmHg 63%
    21:00 +21°C° 0 mm 5 m/s 623 mmHg 66%
    22:00 +20°C° 0 mm 5 m/s 623 mmHg 69%
    23:00 +20°C° 0 mm 5 m/s 623 mmHg 72%

    Demain, 22 Mars, Vendredi

    Heure Température Précipitation Vent Pression Humidité
    00:00 +19°C° 0 mm 4 m/s 623 mmHg 74%
    01:00 +19°C° 0 mm 4 m/s 622 mmHg 76%
    02:00 +18°C° 0 mm 3 m/s 622 mmHg 79%
    03:00 +18°C° 0 mm 3 m/s 622 mmHg 80%
    04:00 +17°C° 0 mm 2 m/s 622 mmHg 82%
    05:00 +17°C° 0 mm 2 m/s 622 mmHg 83%
    06:00 +19°C° 0 mm 2 m/s 623 mmHg 73%
    07:00 +21°C° 0 mm 2 m/s 624 mmHg 62%
    08:00 +24°C° 0 mm 3 m/s 625 mmHg 52%
    09:00 +26°C° 0 mm 3 m/s 625 mmHg 42%
    10:00 +28°C° 0 mm 4 m/s 625 mmHg 33%
    11:00 +32°C° 0 mm 5 m/s 626 mmHg 24%
    12:00 +32°C° 0 mm 5 m/s 625 mmHg 23%
    13:00 +33°C° 0 mm 6 m/s 625 mmHg 23%
    14:00 +33°C° 0 mm 6 m/s 624 mmHg 23%
    15:00 +32°C° 0 mm 6 m/s 624 mmHg 28%
    16:00 +29°C° 0 mm 6 m/s 623 mmHg 34%
    17:00 +28°C° 0 mm 7 m/s 623 mmHg 39%
    18:00 +26°C° 0 mm 6 m/s 623 mmHg 49%
    19:00 +23°C° 0 mm 6 m/s 623 mmHg 58%
    20:00 +22°C° 0 mm 6 m/s 623 mmHg 67%
    21:00 +21°C° 0 mm 5 m/s 623 mmHg 71%
    22:00 +20°C° 0 mm 5 m/s 624 mmHg 75%
    23:00 +20°C° 0 mm 5 m/s 624 mmHg 79%

    Après-demain, 23 Mars, Samedi

    Heure Température Précipitation Vent Pression Humidité
    00:00 +19°C° 0 mm 4 m/s 623 mmHg 82%
    01:00 +19°C° 0 mm 4 m/s 623 mmHg 85%
    02:00 +18°C° 0 mm 3 m/s 622 mmHg 88%
    03:00 +18°C° 0 mm 3 m/s 622 mmHg 89%
    04:00 +17°C° 0 mm 2 m/s 622 mmHg 90%
    05:00 +17°C° 0 mm 2 m/s 622 mmHg 91%
    06:00 +19°C° 0 mm 2 m/s 623 mmHg 78%
    07:00 +21°C° 0 mm 3 m/s 624 mmHg 66%
    08:00 +24°C° 0 mm 3 m/s 625 mmHg 53%
    09:00 +26°C° 0 mm 4 m/s 625 mmHg 44%
    10:00 +28°C° 0 mm 5 m/s 625 mmHg 36%
    11:00 +30°C° 0 mm 6 m/s 626 mmHg 27%
    12:00 +32°C° 0 mm 6 m/s 625 mmHg 27%
    13:00 +32°C° 0 mm 6 m/s 624 mmHg 26%
    14:00 +33°C° 0 mm 6 m/s 623 mmHg 26%
    15:00 +30°C° 0 mm 6 m/s 623 mmHg 31%
    16:00 +29°C° 0 mm 6 m/s 623 mmHg 36%
    17:00 +28°C° 0 mm 6 m/s 622 mmHg 41%
    18:00 +26°C° 0 mm 6 m/s 622 mmHg 52%
    19:00 +23°C° 0 mm 6 m/s 623 mmHg 63%
    20:00 +21°C° 0 mm 6 m/s 623 mmHg 73%
    21:00 +21°C° 0 mm 6 m/s 623 mmHg 77%
    22:00 +20°C° 0 mm 5 m/s 623 mmHg 81%
    23:00 +20°C° 0 mm 5 m/s 623 mmHg 84%

    24 Mars, Dimanche

    Heure Température Précipitation Vent Pression Humidité
    00:00 +19°C° 0 mm 5 m/s 622 mmHg 86%
    01:00 +18°C° 0 mm 4 m/s 622 mmHg 88%
    02:00 +18°C° 0 mm 3 m/s 621 mmHg 89%
    03:00 +18°C° 0 mm 3 m/s 621 mmHg 90%
    04:00 +17°C° 0 mm 2 m/s 621 mmHg 90%
    05:00 +17°C° 0 mm 2 m/s 621 mmHg 91%
    06:00 +18°C° 0 mm 2 m/s 622 mmHg 80%
    07:00 +20°C° 0 mm 3 m/s 623 mmHg 70%
    08:00 +22°C° 0 mm 3 m/s 624 mmHg 60%
    09:00 +25°C° 0 mm 4 m/s 624 mmHg 47%
    10:00 +28°C° 0 mm 5 m/s 625 mmHg 35%
    11:00 +30°C° 0 mm 5 m/s 625 mmHg 22%
    12:00 +32°C° 0 mm 5 m/s 624 mmHg 23%
    13:00 +32°C° 0 mm 5 m/s 623 mmHg 23%
    14:00 +33°C° 0 mm 6 m/s 623 mmHg 23%
    15:00 +30°C° 0 mm 6 m/s 622 mmHg 29%
    16:00 +29°C° 0 mm 6 m/s 622 mmHg 35%
    17:00 +28°C° 0 mm 6 m/s 622 mmHg 41%
    18:00 +26°C° 0.1 mm 6 m/s 622 mmHg 51%
    19:00 +23°C° 0.1 mm 6 m/s 622 mmHg 61%
    20:00 +21°C° 0.1 mm 5 m/s 622 mmHg 71%
    21:00 +21°C° 0 mm 5 m/s 622 mmHg 75%
    22:00 +20°C° 0 mm 5 m/s 622 mmHg 80%
    23:00 +20°C° 0 mm 5 m/s 622 mmHg 84%

    25 Mars, Lundi

    Heure Température Précipitation Vent Pression Humidité
    00:00 +19°C° 0 mm 4 m/s 622 mmHg 85%
    01:00 +19°C° 0 mm 4 m/s 621 mmHg 85%
    02:00 +19°C° 0 mm 3 m/s 621 mmHg 86%
    03:00 +19°C° 0 mm 3 m/s 621 mmHg 86%
    04:00 +18°C° 0 mm 3 m/s 621 mmHg 87%
    05:00 +18°C° 0 mm 2 m/s 622 mmHg 88%
    06:00 +20°C° 0 mm 2 m/s 623 mmHg 77%
    07:00 +21°C° 0 mm 2 m/s 624 mmHg 66%
    08:00 +24°C° 0 mm 2 m/s 624 mmHg 55%
    09:00 +26°C° 0 mm 3 m/s 625 mmHg 44%
    10:00 +28°C° 0 mm 4 m/s 625 mmHg 34%
    11:00 +30°C° 0 mm 4 m/s 625 mmHg 23%
    12:00 +32°C° 0 mm 5 m/s 624 mmHg 23%
    13:00 +32°C° 0 mm 5 m/s 624 mmHg 23%
    14:00 +33°C° 0 mm 5 m/s 623 mmHg 23%
    15:00 +32°C° 0 mm 6 m/s 623 mmHg 27%
    16:00 +30°C° 0 mm 6 m/s 623 mmHg 31%
    17:00 +29°C° 0 mm 6 m/s 622 mmHg 35%
    18:00 +27°C° 0 mm 6 m/s 622 mmHg 45%
    19:00 +24°C° 0 mm 6 m/s 622 mmHg 55%
    20:00 +22°C° 0 mm 6 m/s 622 mmHg 65%
    21:00 +21°C° 0 mm 6 m/s 623 mmHg 68%
    22:00 +20°C° 0 mm 6 m/s 623 mmHg 72%
    23:00 +20°C° 0 mm 5 m/s 623 mmHg 75%

    26 Mars, Mardi

    Heure Température Précipitation Vent Pression Humidité
    00:00 +19°C° 0 mm 5 m/s 622 mmHg 77%
    01:00 +19°C° 0 mm 4 m/s 622 mmHg 79%
    02:00 +18°C° 0 mm 4 m/s 622 mmHg 82%
    03:00 +18°C° 0 mm 3 m/s 622 mmHg 83%
    04:00 +18°C° 0 mm 3 m/s 622 mmHg 83%
    05:00 +17°C° 0 mm 2 m/s 622 mmHg 84%
    06:00 +19°C° 0 mm 2 m/s 623 mmHg 76%
    07:00 +21°C° 0 mm 3 m/s 624 mmHg 68%
    08:00 +22°C° 0 mm 3 m/s 625 mmHg 60%
    09:00 +25°C° 0 mm 4 m/s 625 mmHg 49%
    10:00 +28°C° 0 mm 4 m/s 625 mmHg 38%
    11:00 +30°C° 0 mm 4 m/s 625 mmHg 28%
    12:00 +32°C° 0 mm 5 m/s 625 mmHg 26%
    13:00 +32°C° 0 mm 5 m/s 625 mmHg 24%
    14:00 +33°C° 0 mm 6 m/s 624 mmHg 22%
    15:00 +32°C° 0 mm 6 m/s 624 mmHg 26%
    16:00 +30°C° 0 mm 6 m/s 624 mmHg 30%
    17:00 +29°C° 0 mm 6 m/s 624 mmHg 34%
    18:00 +27°C° 0 mm 6 m/s 624 mmHg 42%
    19:00 +24°C° 0 mm 6 m/s 624 mmHg 50%
    20:00 +23°C° 0 mm 6 m/s 624 mmHg 57%
    21:00 +22°C° 0 mm 6 m/s 624 mmHg 61%
    22:00 +21°C° 0 mm 5 m/s 624 mmHg 64%
    23:00 +20°C° 0 mm 5 m/s 624 mmHg 67%
    Voir plus